Epoch,demod_status_bits,ebno,lock_status,signal_level,viterbi_ber
1664395809,,13.0,0x00c000,-38.3,
1664395810,C;S;V;F,13.4,0x00c000,-38.2,3.03e-7
1664395811,C;S;V;F,13.0,0x00c000,-38.8,1.51e-7
1664395812,C;S;V;F,12.5,0x00c000,-39.1,1.51e-7
1664395813,C;S;V;F,,0x00c000,-38.9,6.06e-7
1664395814,C;S;V;F,12.7,0x00c000,,7.57e-7
1664395815,C;S;V;F,13.0,0x00c000,-38.8,3.03e-7
1664395816,C;S;V;F,12.6,0x00c000,-38.8,4.54e-7
1664395817,C;S;V;F,12.8,0x00c000,-38.4,4.54e-7
1664395818,C;S;V;F,13.3,0x00c000,-38.2,0.00e-0
1664395819,C;S;V;F,13.3,0x00c000,-38.6,0.00e-0
1664395820,C;S;V;F,13.3,0x00c000,-38.0,1.51e-7
1664395821,C;S;V;F,12.9,0x00c000,-38.6,1.51e-7
1664395822,C;S;V;F,13.1,0x00c000,-38.4,
1664395823,,13.3,0x00c000,-38.1,3.03e-7
1664395824,C;S;V;F,13.2,0x00c000,-38.2,0.00e-0
1664395825,C;S;V;F,13.5,0x00c000,-38.2,0.00e-0
1664395826,C;S;V;F,13.4,0x00c000,-38.1,0.00e-0
1664395827,C;S;V;F,13.2,0x00c000,-38.3,0.00e-0
1664395828,C;S;V;F,,0x00c000,-38.6,0.00e-0
1664395829,C;S;V;F,13.4,0x00c000,,0.00e-0
1664395830,C;S;V;F,13.2,0x00c000,-38.6,0.00e-0
1664395831,C;S;V;F,13.8,0x00c000,-38.3,0.00e-0
1664395832,C;S;V;F,14.2,0x00c000,-37.5,0.00e-0
1664395833,C;S;V;F,14.3,0x00c000,-37.7,0.00e-0
1664395834,C;S;V;F,13.9,0x00c000,-37.9,0.00e-0
1664395835,C;S;V;F,13.8,0x00c000,-38.0,0.00e-0
1664395836,C;S;V;F,13.9,0x00c000,-37.7,0.00e-0
1664395837,C;S;V;F,14.0,0x00c000,-37.4,0.00e-0
1664395838,C;S;V;F,14.2,0x00c000,-37.3,0.00e-0
1664395839,C;S;V;F,14.3,0x00c000,-37.2,
1664395840,,14.5,0x00c000,-37.2,0.00e-0
1664395841,C;S;V;F,14.5,0x00c000,-37.4,0.00e-0
1664395842,C;S;V;F,14.8,0x00c000,-37.0,0.00e-0
1664395843,C;S;V;F,14.7,0x00c000,-37.3,0.00e-0
1664395844,C;S;V;F,14.5,0x00c000,-37.3,0.00e-0
1664395845,C;S;V;F,,0x00c000,-37.0,0.00e-0
1664395846,C;S;V;F,14.6,0x00c000,,0.00e-0
1664395847,C;S;V;F,14.8,0x00c000,-37.2,0.00e-0
1664395848,C;S;V;F,15.2,0x00c000,-36.5,0.00e-0
1664395849,C;S;V;F,15.2,0x00c000,-36.9,0.00e-0
1664395850,C;S;V;F,14.8,0x00c000,-37.1,0.00e-0
1664395851,C;S;V;F,14.5,0x00c000,-37.2,0.00e-0
1664395852,C;S;V;F,14.9,0x00c000,-36.8,0.00e-0
1664395853,C;S;V;F,14.8,0x00c000,-37.1,0.00e-0
1664395854,C;S;V;F,14.9,0x00c000,-36.9,0.00e-0
1664395856,C;S;V;F,14.6,0x00c000,-37.3,
1664395857,,14.6,0x00c000,-37.2,0.00e-0
1664395858,C;S;V;F,14.8,0x00c000,-37.1,0.00e-0
1664395859,C;S;V;F,14.7,0x00c000,-37.1,0.00e-0
1664395860,C;S;V;F,14.9,0x00c000,-37.0,0.00e-0
1664395861,C;S;V;F,,0x00c000,-37.2,0.00e-0
1664395862,C;S;V;F,14.6,0x00c000,,0.00e-0
1664395863,C;S;V;F,14.8,0x00c000,-36.9,0.00e-0
1664395864,C;S;V;F,14.9,0x00c000,-36.9,0.00e-0
1664395865,C;S;V;F,15.2,0x00c000,-36.6,0.00e-0
1664395866,C;S;V;F,15.1,0x00c000,-36.9,0.00e-0
1664395867,C;S;V;F,15.1,0x00c000,-36.8,0.00e-0
1664395868,C;S;V;F,15.1,0x00c000,-36.6,0.00e-0
1664395869,C;S;V;F,15.3,0x00c000,-36.7,0.00e-0
1664395870,C;S;V;F,15.4,0x00c000,-36.6,0.00e-0
1664395871,C;S;V;F,15.0,0x00c000,-36.8,0.00e-0
1664395872,C;S;V;F,15.4,0x00c000,-36.3,0.00e-0
1664395873,C;S;V;F,15.6,0x00c000,-36.5,
1664395874,,15.4,0x00c000,-36.4,0.00e-0
1664395875,C;S;V;F,15.3,0x00c000,-36.4,0.00e-0
1664395876,C;S;V;F,15.3,0x00c000,-36.6,0.00e-0
1664395877,C;S;V;F,15.1,0x00c000,-36.5,0.00e-0
1664395878,C;S;V;F,,0x00c000,-36.5,0.00e-0
1664395879,C;S;V;F,15.1,0x00c000,,0.00e-0
1664395880,C;S;V;F,15.3,0x00c000,-36.4,0.00e-0
1664395881,C;S;V;F,15.5,0x00c000,-36.5,0.00e-0
1664395882,C;S;V;F,15.2,0x00c000,-36.7,0.00e-0
1664395883,C;S;V;F,15.2,0x00c000,-36.8,0.00e-0
1664395884,C;S;V;F,15.2,0x00c000,-36.6,0.00e-0
1664395885,C;S;V;F,15.5,0x00c000,-36.2,0.00e-0
1664395886,C;S;V;F,15.4,0x00c000,-36.5,0.00e-0
1664395887,C;S;V;F,14.9,0x00c000,-37.1,0.00e-0
1664395888,C;S;V;F,14.9,0x00c000,-36.9,0.00e-0
1664395889,C;S;V;F,15.2,0x00c000,-36.7,0.00e-0
1664395890,C;S;V;F,15.4,0x00c000,-36.5,0.00e-0
1664395891,C;S;V;F,15.3,0x00c000,-36.6,
1664395892,,15.4,0x00c000,-36.5,0.00e-0
1664395893,C;S;V;F,15.6,0x00c000,-36.4,0.00e-0
1664395894,C;S;V;F,,0x00c000,-36.4,0.00e-0
1664395895,C;S;V;F,15.6,0x00c000,-36.6,0.00e-0
1664395896,C;S;V;F,15.4,0x00c000,,0.00e-0
1664395897,C;S;V;F,15.3,0x00c000,-36.7,0.00e-0
1664395898,C;S;V;F,15.7,0x00c000,-36.3,0.00e-0
1664395899,C;S;V;F,15.5,0x00c000,-36.3,0.00e-0
1664395900,C;S;V;F,16.1,0x00c000,-35.8,0.00e-0
1664395901,C;S;V;F,16.0,0x00c000,-36.2,0.00e-0
1664395902,C;S;V;F,15.8,0x00c000,-36.2,0.00e-0
1664395903,C;S;V;F,15.9,0x00c000,-35.7,0.00e-0
1664395904,C;S;V;F,15.9,0x00c000,-36.0,0.00e-0
1664395905,C;S;V;F,16.1,0x00c000,-35.6,0.00e-0
1664395906,C;S;V;F,16.2,0x00c000,-35.5,0.00e-0
1664395907,C;S;V;F,16.6,0x00c000,-35.4,
1664395908,C;S;V;F,16.5,0x00c000,-35.4,0.00e-0
1664395909,,16.3,0x00c000,-35.4,0.00e-0
1664395910,C;S;V;F,16.7,0x00c000,-35.3,0.00e-0
1664395911,C;S;V;F,16.7,0x00c000,-35.2,0.00e-0
1664395912,C;S;V;F,,0x00c000,-35.3,0.00e-0
1664395913,C;S;V;F,16.7,0x00c000,,0.00e-0
1664395914,C;S;V;F,16.9,0x00c000,-34.8,0.00e-0
1664395915,C;S;V;F,16.9,0x00c000,-34.7,0.00e-0
1664395916,C;S;V;F,17.0,0x00c000,-34.8,0.00e-0
1664395917,C;S;V;F,16.7,0x00c000,-35.2,0.00e-0
1664395920,C;S;V;F,16.9,0x00c000,-34.8,0.00e-0
1664395921,C;S;V;F,16.9,0x00c000,-35.2,0.00e-0
1664395922,C;S;V;F,16.7,0x00c000,-35.3,
1664395923,C;S;V;F,16.5,0x00c000,-34.9,0.00e-0
1664395924,,16.6,0x00c000,-35.3,0.00e-0
1664395925,C;S;V;F,16.5,0x00c000,-35.2,0.00e-0
1664395926,C;S;V;F,16.8,0x00c000,-35.0,0.00e-0
1664395927,C;S;V;F,,0x00c000,-35.2,0.00e-0
1664395928,C;S;V;F,16.7,0x00c000,,0.00e-0
1664395929,C;S;V;F,16.9,0x00c000,-35.0,0.00e-0
1664395930,C;S;V;F,16.9,0x00c000,-35.1,0.00e-0
1664395931,C;S;V;F,16.8,0x00c000,-35.0,0.00e-0
1664395932,C;S;V;F,16.6,0x00c000,-35.0,0.00e-0
1664395933,C;S;V;F,16.8,0x00c000,-34.7,0.00e-0
1664395934,C;S;V;F,16.9,0x00c000,-35.1,0.00e-0
1664395935,C;S;V;F,16.6,0x00c000,-35.5,0.00e-0
1664395936,C;S;V;F,17.0,0x00c000,-34.9,0.00e-0
1664395937,C;S;V;F,17.0,0x00c000,-35.2,
1664395938,,17.0,0x00c000,-34.8,0.00e-0
1664395939,C;S;V;F,16.8,0x00c000,-35.0,0.00e-0
1664395940,C;S;V;F,16.9,0x00c000,-35.1,0.00e-0
1664395941,C;S;V;F,16.8,0x00c000,-35.2,0.00e-0
1664395942,C;S;V;F,16.5,0x00c000,-35.1,0.00e-0
1664395943,C;S;V;F,,0x00c000,-34.9,0.00e-0
1664395944,C;S;V;F,16.9,0x00c000,,0.00e-0
1664395945,C;S;V;F,16.7,0x00c000,-35.0,0.00e-0
1664395946,C;S;V;F,16.7,0x00c000,-35.0,0.00e-0
1664395947,C;S;V;F,16.6,0x00c000,-35.2,0.00e-0
1664395948,C;S;V;F,16.6,0x00c000,-35.3,0.00e-0
1664395949,C;S;V;F,16.6,0x00c000,-35.1,0.00e-0
1664395950,C;S;V;F,16.5,0x00c000,-35.5,0.00e-0
1664395951,C;S;V;F,16.3,0x00c000,-35.6,0.00e-0
1664395952,C;S;V;F,16.6,0x00c000,-35.3,0.00e-0
1664395953,C;S;V;F,16.5,0x00c000,-35.5,0.00e-0
1664395954,C;S;V;F,16.9,0x00c000,-35.1,0.00e-0
1664395955,C;S;V;F,16.8,0x00c000,-35.2,0.00e-0
1664395956,C;S;V;F,16.5,0x00c000,-35.5,0.00e-0
1664395957,C;S;V;F,16.1,0x00c000,-35.6,
1664395958,,15.9,0x00c000,-36.1,0.00e-0
1664395959,C;S;V;F,16.0,0x00c000,-36.1,0.00e-0
1664395960,C;S;V;F,,0x00c000,-35.9,0.00e-0
1664395961,C;S;V;F,16.3,0x00c000,-36.1,0.00e-0
1664395962,C;S;V;F,16.2,0x00c000,,0.00e-0
1664395963,C;S;V;F,16.1,0x00c000,-36.0,0.00e-0
1664395964,C;S;V;F,15.8,0x00c000,-36.2,0.00e-0
1664395965,C;S;V;F,16.0,0x00c000,-36.4,0.00e-0
1664395966,C;S;V;F,15.8,0x00c000,-36.4,0.00e-0
1664395967,C;S;V;F,15.6,0x00c000,-36.5,0.00e-0
1664395968,C;S;V;F,15.7,0x00c000,-36.4,0.00e-0
1664395969,C;S;V;F,15.6,0x00c000,-36.5,0.00e-0
1664395970,C;S;V;F,15.6,0x00c000,-36.7,0.00e-0
1664395971,C;S;V;F,15.2,0x00c000,-36.9,0.00e-0
1664395972,C;S;V;F,15.3,0x00c000,-37.1,0.00e-0
1664395973,C;S;V;F,15.1,0x00c000,-37.2,
1664395974,,15.2,0x00c000,-37.2,0.00e-0
1664395975,C;S;V;F,15.0,0x00c000,-37.2,0.00e-0
1664395976,C;S;V;F,15.2,0x00c000,-37.2,0.00e-0
1664395977,C;S;V;F,15.0,0x00c000,-37.5,0.00e-0
1664395978,C;S;V;F,,0x00c000,-37.2,0.00e-0
1664395979,C;S;V;F,15.0,0x00c000,-37.3,0.00e-0
1664395980,C;S;V;F,14.8,0x00c000,,0.00e-0
1664395982,C;S;V;F,14.7,0x00c000,-37.4,0.00e-0
1664395983,C;S;V;F,14.8,0x00c000,-37.5,0.00e-0
1664395984,C;S;V;F,14.6,0x00c000,-37.5,0.00e-0
1664395985,C;S;V;F,14.7,0x00c000,-37.9,0.00e-0
1664395986,C;S;V;F,14.3,0x00c000,-38.0,0.00e-0
1664395987,C;S;V;F,14.4,0x00c000,-38.0,0.00e-0
1664395988,C;S;V;F,14.3,0x00c000,-38.0,0.00e-0
1664395989,C;S;V;F,14.2,0x00c000,-38.0,
1664395990,,14.3,0x00c000,-37.9,0.00e-0
1664395991,C;S;V;F,14.3,0x00c000,-37.9,0.00e-0
1664395992,C;S;V;F,14.4,0x00c000,-37.9,0.00e-0
1664395993,C;S;V;F,14.2,0x00c000,-37.9,0.00e-0
1664395994,C;S;V;F,14.5,0x00c000,-37.9,0.00e-0
1664395995,C;S;V;F,,0x00c000,,0.00e-0
1664395996,C;S;V;F,14.3,0x00c000,-38.0,0.00e-0
1664395997,C;S;V;F,14.3,0x00c000,-38.1,0.00e-0
1664395998,C;S;V;F,14.2,0x00c000,-38.3,0.00e-0
1664395999,C;S;V;F,14.1,0x00c000,-38.3,0.00e-0
1664396000,C;S;V;F,14.0,0x00c000,-38.2,0.00e-0
1664396001,C;S;V;F,13.9,0x00c000,-38.1,0.00e-0
1664396002,C;S;V;F,14.1,0x00c000,-38.1,0.00e-0
1664396003,C;S;V;F,14.3,0x00c000,-37.7,0.00e-0
1664396004,C;S;V;F,14.7,0x00c000,-37.4,
1664396005,,15.0,0x00c000,-37.1,0.00e-0
1664396006,C;S;V;F,15.0,0x00c000,-37.1,0.00e-0
1664396007,C;S;V;F,15.1,0x00c000,-36.9,0.00e-0
1664396008,C;S;V;F,15.3,0x00c000,-37.1,0.00e-0
1664396009,C;S;V;F,15.4,0x00c000,-37.2,0.00e-0
1664396010,C;S;V;F,,0x00c000,-37.0,0.00e-0
1664396011,C;S;V;F,15.3,0x00c000,-37.1,0.00e-0
1664396012,C;S;V;F,15.4,0x00c000,-36.8,0.00e-0
1664396013,C;S;V;F,15.2,0x00c000,,0.00e-0
1664396014,C;S;V;F,15.3,0x00c000,-36.9,0.00e-0
1664396015,C;S;V;F,15.6,0x00c000,-36.6,0.00e-0
1664396016,C;S;V;F,15.8,0x00c000,-36.3,0.00e-0
1664396017,C;S;V;F,15.9,0x00c000,-36.3,0.00e-0
1664396018,C;S;V;F,15.9,0x00c000,-36.0,0.00e-0
1664396019,C;S;V;F,16.4,0x00c000,-35.6,0.00e-0
1664396020,C;S;V;F,16.5,0x00c000,-35.5,0.00e-0
1664396021,C;S;V;F,16.6,0x00c000,-35.3,0.00e-0
1664396022,C;S;V;F,16.6,0x00c000,-35.3,
1664396023,,16.5,0x00c000,-35.3,0.00e-0
1664396024,C;S;V;F,16.5,0x00c000,-35.6,0.00e-0
1664396025,C;S;V;F,16.7,0x00c000,-35.6,0.00e-0
1664396026,C;S;V;F,,0x00c000,-35.7,0.00e-0
1664396027,C;S;V;F,16.5,0x00c000,-35.7,0.00e-0
1664396028,C;S;V;F,16.5,0x00c000,,0.00e-0
1664396029,C;S;V;F,16.5,0x00c000,-35.6,0.00e-0
1664396030,C;S;V;F,16.4,0x00c000,-35.6,0.00e-0
1664396031,C;S;V;F,16.4,0x00c000,-35.6,0.00e-0
1664396032,C;S;V;F,16.4,0x00c000,-35.5,0.00e-0
1664396033,C;S;V;F,16.2,0x00c000,-35.7,0.00e-0
1664396034,C;S;V;F,16.3,0x00c000,-35.6,0.00e-0
1664396035,C;S;V;F,16.3,0x00c000,-35.9,0.00e-0
1664396036,C;S;V;F,16.3,0x00c000,-35.8,0.00e-0
1664396037,C;S;V;F,16.4,0x00c000,-36.0,0.00e-0
1664396038,C;S;V;F,16.4,0x00c000,-35.9,0.00e-0
1664396039,C;S;V;F,16.1,0x00c000,-36.1,0.00e-0
1664396040,C;S;V;F,16.0,0x00c000,-36.1,
1664396041,C;S;V;F,16.2,0x00c000,-36.3,0.00e-0
1664396042,,16.0,0x00c000,-36.1,0.00e-0
1664396043,C;S;V;F,,,,0.00e-0
1664396047,,15.8,0x00c000,-36.3,
1664396048,C;S;V;F,,0x00c000,-36.3,0.00e-0
1664396049,C;S;V;F,15.9,0x00c000,,0.00e-0
1664396050,C;S;V;F,15.9,0x00c000,-36.4,0.00e-0
1664396051,C;S;V;F,15.9,0x00c000,-36.4,0.00e-0
1664396052,C;S;V;F,15.9,0x00c000,-36.4,0.00e-0
1664396053,C;S;V;F,15.7,0x00c000,-36.3,0.00e-0
1664396054,C;S;V;F,15.8,0x00c000,-36.3,0.00e-0
1664396055,C;S;V;F,15.9,0x00c000,-36.4,0.00e-0
1664396056,C;S;V;F,15.9,0x00c000,-36.4,0.00e-0
1664396057,C;S;V;F,16.2,0x00c000,-36.1,0.00e-0
1664396058,C;S;V;F,16.0,0x00c000,-36.3,0.00e-0
1664396059,C;S;V;F,16.1,0x00c000,-36.1,0.00e-0
1664396060,C;S;V;F,15.8,0x00c000,-36.3,0.00e-0
1664396061,,15.7,0x00c000,-36.2,
1664396062,C;S;V;F,16.2,0x00c000,-36.3,0.00e-0
1664396063,C;S;V;F,16.1,0x00c000,-36.4,0.00e-0
1664396064,C;S;V;F,15.6,0x00c000,-36.3,0.00e-0
1664396065,C;S;V;F,,0x00c000,-36.4,0.00e-0
1664396066,C;S;V;F,15.8,0x00c000,-36.3,0.00e-0
1664396067,C;S;V;F,16.0,0x00c000,,0.00e-0
1664396068,C;S;V;F,16.1,0x00c000,-36.1,0.00e-0
1664396069,C;S;V;F,16.3,0x00c000,-35.7,0.00e-0
1664396070,C;S;V;F,16.5,0x00c000,-35.6,0.00e-0
1664396071,C;S;V;F,16.0,0x00c000,-35.6,0.00e-0
1664396072,C;S;V;F,16.0,0x00c000,-35.9,0.00e-0
1664396073,C;S;V;F,16.2,0x00c000,-35.9,0.00e-0
1664396074,C;S;V;F,16.2,0x00c000,-35.9,0.00e-0
1664396075,C;S;V;F,16.0,0x00c000,-36.0,0.00e-0
1664396076,C;S;V;F,15.9,0x00c000,-36.3,
1664396077,,16.0,0x00c000,-36.3,0.00e-0
1664396078,C;S;V;F,15.9,0x00c000,-36.3,0.00e-0
1664396079,C;S;V;F,15.8,0x00c000,-36.4,0.00e-0
1664396080,C;S;V;F,15.8,0x00c000,-36.5,0.00e-0
1664396081,C;S;V;F,,0x00c000,-36.4,0.00e-0
1664396082,C;S;V;F,16.0,0x00c000,,0.00e-0
1664396083,C;S;V;F,15.7,0x00c000,-36.4,0.00e-0
1664396084,C;S;V;F,15.8,0x00c000,-36.5,0.00e-0
1664396085,C;S;V;F,15.8,0x00c000,-36.4,0.00e-0
1664396086,C;S;V;F,16.1,0x00c000,-36.0,0.00e-0
1664396087,C;S;V;F,15.9,0x00c000,-36.3,0.00e-0
1664396088,C;S;V;F,15.9,0x00c000,-36.4,0.00e-0
1664396089,C;S;V;F,16.0,0x00c000,-36.3,0.00e-0
1664396090,C;S;V;F,16.0,0x00c000,-36.2,0.00e-0
1664396091,C;S;V;F,16.0,0x00c000,-36.3,0.00e-0
1664396092,C;S;V;F,16.1,0x00c000,-36.3,
1664396093,,15.9,0x00c000,-36.0,0.00e-0
1664396094,C;S;V;F,16.0,0x00c000,-36.3,0.00e-0
1664396095,C;S;V;F,,0x00c000,-36.4,0.00e-0
1664396096,C;S;V;F,15.8,0x00c000,-36.2,0.00e-0
1664396097,C;S;V;F,16.1,0x00c000,,0.00e-0
1664396098,C;S;V;F,15.9,0x00c000,-36.2,0.00e-0
1664396099,C;S;V;F,16.2,0x00c000,-36.1,0.00e-0
1664396100,C;S;V;F,16.3,0x00c000,-36.0,0.00e-0
1664396101,C;S;V;F,16.2,0x00c000,-36.3,0.00e-0
1664396102,C;S;V;F,16.2,0x00c000,-36.1,0.00e-0
1664396103,C;S;V;F,16.3,0x00c000,-36.0,0.00e-0
1664396104,C;S;V;F,16.3,0x00c000,-35.8,
1664396105,,,,,0.00e-0
1664396106,C;S;V;F,16.6,0x00c000,-35.7,0.00e-0
1664396107,C;S;V;F,16.5,0x00c000,-35.7,0.00e-0
1664396108,C;S;V;F,16.7,0x00c000,-35.6,0.00e-0
1664396109,C;S;V;F,16.4,0x00c000,-35.8,0.00e-0
1664396111,,16.5,0x00c000,-35.6,
1664396112,C;S;V;F,16.5,0x00c000,-35.8,0.00e-0
1664396113,C;S;V;F,16.3,0x00c000,-35.9,0.00e-0
1664396114,C;S;V;F,,0x00c000,-35.7,0.00e-0
1664396115,C;S;V;F,16.4,0x00c000,,0.00e-0
1664396116,C;S;V;F,16.6,0x00c000,-35.8,0.00e-0
1664396117,C;S;V;F,16.7,0x00c000,-35.4,0.00e-0
1664396118,C;S;V;F,16.5,0x00c000,-35.6,0.00e-0
1664396119,C;S;V;F,16.6,0x00c000,-35.5,0.00e-0
1664396120,C;S;V;F,16.7,0x00c000,-35.5,0.00e-0
1664396121,C;S;V;F,16.8,0x00c000,-35.5,0.00e-0
1664396122,C;S;V;F,16.8,0x00c000,-35.5,0.00e-0
1664396123,C;S;V;F,16.6,0x00c000,-35.6,0.00e-0
1664396124,C;S;V;F,16.4,0x00c000,-35.7,0.00e-0
1664396125,C;S;V;F,16.5,0x00c000,-35.9,
1664396126,,16.5,0x00c000,-35.8,0.00e-0
1664396127,C;S;V;F,16.5,0x00c000,-35.6,0.00e-0
1664396128,C;S;V;F,16.3,0x00c000,-35.7,0.00e-0
1664396129,C;S;V;F,,0x00c000,-35.8,0.00e-0
1664396130,C;S;V;F,16.2,0x00c000,,0.00e-0
1664396131,C;S;V;F,16.4,0x00c000,-35.8,0.00e-0
1664396132,C;S;V;F,16.7,0x00c000,-35.6,0.00e-0
1664396133,C;S;V;F,16.5,0x00c000,-35.6,0.00e-0
1664396134,C;S;V;F,16.6,0x00c000,-35.4,0.00e-0
1664396135,C;S;V;F,17.1,0x00c000,-35.1,0.00e-0
1664396136,C;S;V;F,17.0,0x00c000,-34.9,0.00e-0
1664396137,C;S;V;F,16.9,0x00c000,-35.0,0.00e-0
1664396138,C;S;V;F,17.0,0x00c000,-35.1,0.00e-0
1664396139,C;S;V;F,16.7,0x00c000,-35.4,0.00e-0
1664396140,C;S;V;F,16.6,0x00c000,-35.6,
1664396141,,16.5,0x00c000,-35.5,0.00e-0
1664396142,C;S;V;F,16.7,0x00c000,-35.5,0.00e-0
1664396143,C;S;V;F,16.6,0x00c000,-35.3,0.00e-0
1664396144,C;S;V;F,16.7,0x00c000,-35.3,0.00e-0
1664396145,C;S;V;F,,0x00c000,-35.2,0.00e-0
1664396146,C;S;V;F,17.0,0x00c000,-35.2,0.00e-0
1664396147,C;S;V;F,16.7,0x00c000,-35.2,0.00e-0
1664396148,C;S;V;F,16.9,0x00c000,,0.00e-0
1664396149,C;S;V;F,16.9,0x00c000,-35.1,0.00e-0
1664396150,C;S;V;F,16.8,0x00c000,-35.1,0.00e-0
1664396151,C;S;V;F,16.9,0x00c000,-35.1,0.00e-0
1664396152,C;S;V;F,16.8,0x00c000,-35.1,0.00e-0
1664396153,C;S;V;F,16.9,0x00c000,-35.1,0.00e-0
1664396154,C;S;V;F,16.9,0x00c000,-35.1,0.00e-0
1664396155,C;S;V;F,16.9,0x00c000,-34.9,0.00e-0
1664396156,C;S;V;F,16.9,0x00c000,-35.0,0.00e-0
1664396157,C;S;V;F,17.1,0x00c000,-34.9,0.00e-0
1664396158,C;S;V;F,17.1,0x00c000,-34.9,0.00e-0
1664396159,C;S;V;F,17.0,0x00c000,-34.7,
1664396160,,17.2,0x00c000,-34.7,0.00e-0
1664396161,C;S;V;F,17.2,0x00c000,-34.6,0.00e-0
1664396162,C;S;V;F,17.4,0x00c000,-34.5,0.00e-0
1664396163,C;S;V;F,,0x00c000,-34.6,0.00e-0
1664396164,C;S;V;F,17.1,0x00c000,-34.7,0.00e-0
1664396165,C;S;V;F,17.5,0x00c000,-34.7,0.00e-0
1664396166,C;S;V;F,17.2,0x00c000,,0.00e-0
1664396167,C;S;V;F,17.1,0x00c000,-34.9,0.00e-0
1664396168,C;S;V;F,17.0,0x00c000,-35.1,0.00e-0
1664396169,C;S;V;F,16.7,0x00c000,-35.1,0.00e-0
1664396170,C;S;V;F,16.8,0x00c000,-35.2,0.00e-0
1664396171,C;S;V;F,16.6,0x00c000,-35.2,0.00e-0
1664396173,C;S;V;F,17.2,0x00c000,-34.8,0.00e-0
1664396174,C;S;V;F,17.5,0x00c000,-34.6,0.00e-0
1664396175,C;S;V;F,17.2,0x00c000,-34.4,0.00e-0
1664396176,C;S;V;F,17.5,0x00c000,-34.2,0.00e-0
1664396177,C;S;V;F,17.6,0x00c000,-34.1,
1664396178,,17.8,0x00c000,-34.0,0.00e-0
1664396179,C;S;V;F,17.8,0x00c000,-34.2,0.00e-0
1664396180,C;S;V;F,17.7,0x00c000,-34.0,0.00e-0
1664396181,C;S;V;F,17.7,0x00c000,-33.9,0.00e-0
1664396182,C;S;V;F,,0x00c000,-34.2,0.00e-0
1664396183,C;S;V;F,17.7,0x00c000,-34.2,0.00e-0
1664396184,C;S;V;F,17.7,0x00c000,-34.4,0.00e-0
1664396185,C;S;V;F,17.9,0x00c000,,0.00e-0
1664396186,C;S;V;F,17.5,0x00c000,-34.4,0.00e-0
1664396187,C;S;V;F,17.0,0x00c000,-34.4,0.00e-0
1664396188,C;S;V;F,17.5,0x00c000,-34.4,0.00e-0
1664396189,C;S;V;F,17.3,0x00c000,-34.3,0.00e-0
1664396190,C;S;V;F,17.4,0x00c000,-34.6,0.00e-0
1664396191,C;S;V;F,17.4,0x00c000,-34.7,0.00e-0
1664396192,C;S;V;F,17.2,0x00c000,-34.8,0.00e-0
1664396193,C;S;V;F,17.4,0x00c000,-34.2,0.00e-0
1664396194,C;S;V;F,17.2,0x00c000,-34.1,0.00e-0
1664396195,C;S;V;F,17.7,0x00c000,-34.3,0.00e-0
1664396196,C;S;V;F,17.7,0x00c000,-34.2,0.00e-0
1664396197,C;S;V;F,17.7,0x00c000,-34.1,0.00e-0
1664396198,C;S;V;F,17.4,0x00c000,-34.1,0.00e-0
1664396199,C;S;V;F,17.5,0x00c000,-34.2,
1664396200,C;S;V;F,17.4,0x00c000,-34.3,0.00e-0
1664396201,,17.7,0x00c000,-34.3,0.00e-0
1664396202,C;S;V;F,17.4,0x00c000,-34.5,0.00e-0
1664396203,C;S;V;F,,0x00c000,-34.9,0.00e-0
1664396204,C;S;V;F,17.1,0x00c000,-35.1,0.00e-0
1664396205,C;S;V;F,16.9,0x00c000,,0.00e-0
1664396206,C;S;V;F,16.7,0x00c000,-35.3,0.00e-0
1664396207,C;S;V;F,16.8,0x00c000,-35.2,0.00e-0
1664396208,C;S;V;F,16.9,0x00c000,-35.4,0.00e-0
1664396209,C;S;V;F,16.5,0x00c000,-35.5,0.00e-0
1664396210,C;S;V;F,16.8,0x00c000,-35.2,0.00e-0
1664396211,C;S;V;F,16.6,0x00c000,-35.4,0.00e-0
1664396212,C;S;V;F,16.4,0x00c000,-35.2,0.00e-0
1664396213,C;S;V;F,16.8,0x00c000,-35.4,0.00e-0
1664396214,C;S;V;F,16.6,0x00c000,-35.5,0.00e-0
1664396215,C;S;V;F,16.4,0x00c000,-35.6,0.00e-0
1664396216,C;S;V;F,16.3,0x00c000,-35.6,0.00e-0
1664396217,C;S;V;F,16.4,0x00c000,-35.5,0.00e-0
1664396218,C;S;V;F,16.6,0x00c000,-35.4,
1664396219,,16.6,0x00c000,-35.5,0.00e-0
1664396220,C;S;V;F,16.5,0x00c000,-35.3,0.00e-0
1664396221,C;S;V;F,16.4,0x00c000,-35.6,0.00e-0
1664396222,C;S;V;F,16.4,0x00c000,-35.4,0.00e-0
1664396223,C;S;V;F,,0x00c000,-35.7,0.00e-0
1664396224,C;S;V;F,16.2,0x00c000,,0.00e-0
1664396225,C;S;V;F,15.8,0x00c000,-36.2,0.00e-0
1664396226,C;S;V;F,15.8,0x00c000,-36.4,0.00e-0
1664396227,C;S;V;F,15.5,0x00c000,-36.7,0.00e-0
1664396228,C;S;V;F,15.1,0x00c000,-37.3,0.00e-0
1664396229,C;S;V;F,14.7,0x00c000,-37.4,0.00e-0
1664396230,C;S;V;F,14.5,0x00c000,-37.6,0.00e-0
1664396231,C;S;V;F,14.6,0x00c000,-37.6,0.00e-0
1664396232,C;S;V;F,14.6,0x00c000,-37.8,0.00e-0
1664396233,C;S;V;F,14.4,0x00c000,-37.7,
1664396234,C;S;V;F,14.4,0x00c000,-38.0,0.00e-0
1664396235,,,,,0.00e-0
1664396236,,,0x00c000,-38.3,
1664396237,C;S;V;F,13.9,0x00c000,,0.00e-0
1664396238,C;S;V;F,14.0,0x00c000,-38.3,0.00e-0
1664396239,C;S;V;F,14.1,0x00c000,-38.1,0.00e-0
1664396240,C;S;V;F,14.4,0x00c000,-37.8,0.00e-0
1664396241,C;S;V;F,14.7,0x00c000,-37.7,0.00e-0
1664396242,C;S;V;F,14.7,0x00c000,-37.4,0.00e-0
1664396243,C;S;V;F,15.0,0x00c000,-37.1,0.00e-0
1664396244,C;S;V;F,15.0,0x00c000,-37.1,0.00e-0
1664396245,C;S;V;F,15.2,0x00c000,-36.9,0.00e-0
1664396246,C;S;V;F,15.1,0x00c000,-37.0,0.00e-0
1664396247,C;S;V;F,15.1,0x00c000,-37.2,0.00e-0
1664396248,,14.9,0x00c000,-37.2,
1664396249,C;S;V;F,14.8,0x00c000,-37.2,0.00e-0
1664396250,C;S;V;F,14.5,0x00c000,-37.4,0.00e-0
1664396251,C;S;V;F,14.4,0x00c000,-37.8,0.00e-0
1664396252,C;S;V;F,14.2,0x00c000,-37.9,0.00e-0
1664396253,C;S;V;F,,0x00c000,-37.9,0.00e-0
1664396254,C;S;V;F,14.2,0x00c000,,0.00e-0
1664396255,C;S;V;F,14.0,0x00c000,-38.1,0.00e-0
1664396256,C;S;V;F,13.9,0x00c000,-38.6,0.00e-0
1664396257,C;S;V;F,13.5,0x00c000,-38.5,0.00e-0
1664396258,C;S;V;F,13.9,0x00c000,-38.0,0.00e-0
1664396259,C;S;V;F,14.4,0x00c000,-37.9,
1664396260,,14.6,0x00c000,-37.6,0.00e-0
1664396261,C;S;V;F,14.5,0x00c000,-37.5,0.00e-0
1664396262,C;S;V;F,14.8,0x00c000,-37.5,0.00e-0
1664396263,C;S;V;F,,0x00c000,-37.5,0.00e-0
1664396264,C;S;V;F,14.8,0x00c000,-37.5,0.00e-0
1664396265,C;S;V;F,14.5,0x00c000,,0.00e-0
1664396266,C;S;V;F,14.4,0x00c000,-37.8,0.00e-0
1664396267,C;S;V;F,14.5,0x00c000,-37.6,0.00e-0
1664396268,C;S;V;F,14.7,0x00c000,-37.3,0.00e-0
1664396269,C;S;V;F,14.7,0x00c000,-37.2,0.00e-0
1664396270,C;S;V;F,14.8,0x00c000,-37.4,0.00e-0
1664396271,C;S;V;F,15.3,0x00c000,-36.8,0.00e-0
1664396272,C;S;V;F,15.2,0x00c000,-36.5,0.00e-0
1664396273,C;S;V;F,15.4,0x00c000,-36.4,0.00e-0
1664396274,C;S;V;F,15.5,0x00c000,-36.4,0.00e-0
1664396275,,15.4,0x00c000,-36.5,
1664396276,C;S;V;F,15.4,0x00c000,-36.5,0.00e-0
1664396277,C;S;V;F,15.2,0x00c000,-36.9,0.00e-0
1664396278,C;S;V;F,,0x00c000,-36.8,0.00e-0
1664396279,C;S;V;F,15.2,0x00c000,-37.1,0.00e-0
1664396280,C;S;V;F,14.9,0x00c000,-37.0,0.00e-0
1664396281,C;S;V;F,15.0,0x00c000,,0.00e-0
1664396282,C;S;V;F,15.0,0x00c000,-37.2,0.00e-0
1664396283,C;S;V;F,14.8,0x00c000,-37.3,0.00e-0
1664396284,C;S;V;F,14.9,0x00c000,-37.4,0.00e-0
1664396285,C;S;V;F,14.7,0x00c000,-37.3,0.00e-0
1664396286,C;S;V;F,14.8,0x00c000,-37.3,0.00e-0
1664396287,C;S;V;F,14.9,0x00c000,-37.4,0.00e-0
1664396288,C;S;V;F,14.7,0x00c000,-37.2,0.00e-0
1664396289,C;S;V;F,14.7,0x00c000,-37.5,0.00e-0
1664396290,C;S;V;F,14.6,0x00c000,-37.2,0.00e-0
1664396291,C;S;V;F,15.0,0x00c000,-36.8,0.00e-0
1664396292,C;S;V;F,15.4,0x00c000,-36.5,0.00e-0
1664396293,,15.4,0x00c000,-36.2,
1664396294,C;S;V;F,15.5,0x00c000,-36.1,0.00e-0
1664396295,C;S;V;F,15.9,0x00c000,-35.9,0.00e-0
1664396296,C;S;V;F,16.2,0x00c000,-35.6,0.00e-0
1664396297,C;S;V;F,,0x00c000,,0.00e-0
1664396299,,15.9,0x00c000,-36.0,
1664396300,C;S;V;F,,0x00c000,-36.0,0.00e-0
1664396301,C;S;V;F,15.7,0x00c000,-36.3,0.00e-0
1664396302,C;S;V;F,15.6,0x00c000,,0.00e-0
1664396303,C;S;V;F,15.7,0x00c000,-36.4,0.00e-0
1664396304,C;S;V;F,15.4,0x00c000,-36.6,0.00e-0
1664396305,C;S;V;F,15.4,0x00c000,-36.4,0.00e-0
1664396306,C;S;V;F,15.3,0x00c000,-36.6,0.00e-0
1664396307,C;S;V;F,15.4,0x00c000,-36.6,0.00e-0
1664396308,C;S;V;F,15.4,0x00c000,-36.3,0.00e-0
1664396309,C;S;V;F,15.6,0x00c000,-36.3,0.00e-0
1664396310,C;S;V;F,15.7,0x00c000,-36.0,0.00e-0
1664396311,C;S;V;F,15.7,0x00c000,-36.1,
1664396312,,15.7,0x00c000,-36.3,0.00e-0
1664396313,C;S;V;F,15.6,0x00c000,-36.3,0.00e-0
1664396314,C;S;V;F,15.4,0x00c000,-36.4,0.00e-0
1664396315,C;S;V;F,15.4,0x00c000,-36.7,0.00e-0
1664396316,C;S;V;F,,0x00c000,-36.5,0.00e-0
1664396317,C;S;V;F,15.1,0x00c000,-36.8,0.00e-0
1664396318,C;S;V;F,15.1,0x00c000,,0.00e-0
1664396319,C;S;V;F,15.1,0x00c000,-36.9,0.00e-0
1664396320,C;S;V;F,15.3,0x00c000,-36.6,0.00e-0
1664396321,C;S;V;F,15.3,0x00c000,-36.4,0.00e-0
1664396322,C;S;V;F,15.3,0x00c000,-35.6,0.00e-0
1664396323,C;S;V;F,16.0,0x00c000,-35.6,0.00e-0
1664396324,C;S;V;F,15.9,0x00c000,-35.9,0.00e-0
1664396325,C;S;V;F,15.5,0x00c000,-36.3,0.00e-0
1664396326,C;S;V;F,15.5,0x00c000,-36.3,0.00e-0
1664396327,C;S;V;F,15.4,0x00c000,-36.5,0.00e-0
1664396328,,15.2,0x00c000,-36.9,
1664396329,C;S;V;F,15.0,0x00c000,-36.9,0.00e-0
1664396330,C;S;V;F,15.1,0x00c000,-36.9,0.00e-0
1664396331,C;S;V;F,14.9,0x00c000,-36.8,0.00e-0
1664396332,C;S;V;F,,0x00c000,-36.8,0.00e-0
1664396333,C;S;V;F,15.2,0x00c000,,0.00e-0
1664396334,C;S;V;F,15.0,0x00c000,-36.5,0.00e-0
1664396335,C;S;V;F,15.2,0x00c000,-36.5,0.00e-0
1664396336,C;S;V;F,15.3,0x00c000,-36.3,0.00e-0
1664396337,C;S;V;F,15.7,0x00c000,-36.2,0.00e-0
1664396338,C;S;V;F,15.8,0x00c000,-36.3,0.00e-0
1664396339,C;S;V;F,15.3,0x00c000,-37.4,0.00e-0
1664396340,C;S;V;F,14.4,0x00c000,-37.5,0.00e-0
1664396341,C;S;V;F,14.3,0x00c000,-37.3,0.00e-0
1664396342,C;S;V;F,14.7,0x00c000,-36.6,0.00e-0
1664396343,,15.0,0x00c000,-37.2,
1664396344,C;S;V;F,,0x00c000,-37.5,0.00e-0
1664396345,C;S;V;F,14.4,0x00c000,,0.00e-0